OpenBCM V2.0.2 (Linux)

Packet Radio Mailbox

IZ3LSV

[San Dona' di P. JN]

 Login: GUEST





  
LU9DCE > KEPS     31.12.17 19:36l 253 Lines 12556 Bytes #999 (0) @ LUNET
BID : 28415_LU9DCE
Read: GUEST
Subj: SAT TLE OF 31
Path: IZ3LSV<IQ2LB<IQ5KG<IK1NHL<CX2SA<LU1PAA<LU4ECL<LU9DCE
Sent: 171231/1601Z @:LU9DCE.TOR.BA.ARG.SOAM #:28415 [TORTUGUITAS] FBB7.0.8-beta
From: LU9DCE@LU9DCE.TOR.BA.ARG.SOAM
To  : KEPS@LUNET


            __    _  _  ___  ____   ___  ____    ____  ____  ____
           (  )  / )( \/ _ \(    \ / __)(  __)  (  _ \(  _ \/ ___)
           / (_/\) \/ (\__  )) D (( (__  ) _)    ) _ ( ) _ (\___ \
           \____/\____/(___/(____/ \___)(____)  (____/(____/(____/
               ESTACION DE PACKET RADIO - BUENOS AIRES (GF05OM)
                   BOLETINES INFORMATIVOS PROGRAMADOS (BIP)
                    LU9DCE@GMX.COM - RF 147070 @ 1200 BAUD
                        https://lu9dce.wordpress.com/
                      telnet lu9dce.dynv6.net port 6300

+------------------------------------------------------------------------------+
OSCAR 7
1 07530U 74089B   17365.52000369 -.00000045  00000-0 -26087-5 0  9999
2 07530 101.6622 330.5277 0011926 301.1776 168.4506 12.53630493973584
OSCAR 11 (UoSAT 2)
1 14781U 84021B   17364.72318824  .00000077  00000-0  15721-4 0  9996
2 14781  97.6723  42.9135 0007038 276.7412  83.3001 14.82969750819473
OSCAR 19 (LUSAT)
1 20442U 90005G   17364.85489333 -.00000015 +00000-0 +10788-4 0  9995
2 20442 098.5949 299.5278 0010722 289.4960 070.5065 14.32882735459723
KITSAT B
1 22825U 93061C   17365.50628569 -.00000004  00000-0  16176-4 0  9991
2 22825  98.8406 333.7897 0009368 112.8166 247.4005 14.30018074265606
POSAT 1
1 22826U 93061D   17365.49192483 -.00000002  00000-0  17053-4 0  9994
2 22826  98.8348 333.8336 0009949 103.8957 256.3332 14.30348577265789
RADIO ROSTO
1 23439U 94085A   17364.91125476 -.00000045  00000-0 -67496-4 0  9990
2 23439  64.8165 260.9879 0162648 211.8874 235.8078 11.27566244947755
JAS 2
1 24278U 96046B   17365.15317157 -.00000016  00000-0  19681-4 0  9997
2 24278  98.5323 221.9086 0350238 186.6631 172.9786 13.53080679 55513
TECHSAT 1B
1 25397U 98043D   17364.84625345 -.00000020 +00000-0 +10427-4 0  9999
2 25397 098.6327 303.2305 0002063 120.4855 239.6528 14.23637012011551
ISS (ZARYA)
1 25544U 98067A   17365.59923611  .00001156  00000-0  24611-4 0  9999
2 25544  51.6402 134.1849 0002812 319.5394 214.1816 15.54235462 92457
PCSAT
1 26931U 01043C   17364.85601770 -.00000046  00000-0  14061-4 0  9991
2 26931  67.0521 303.7513 0005224 273.5637  86.4867 14.30489035848479
SAUDISAT 1C
1 27607U 02058C   17365.11698764  .00000030  00000-0  24925-4 0  9990
2 27607  64.5547 243.7405 0044685  11.2603 348.9488 14.75407969808169
CUTE-1
1 27844U 03031E   17365.01328500  .00000076  00000-0  53915-4 0  9993
2 27844  98.6884  11.1426 0010531 134.2553 225.9491 14.22085803752298
CUBESAT XI 4
1 27848U 03031J   17365.48904304  .00000058  00000-0  46380-4 0  9998
2 27848  98.6974  11.9498 0010303 142.0530 218.1376 14.21693884752231
MOZHAYETS 4
1 27939U 03042A   17365.55402872  .00000112  00000-0  28633-4 0  9994
2 27939  97.9650 144.2859 0012105 324.9016 103.1262 14.66644774762240
CUBESAT XI 5
1 28895U 05043F   17365.42965205  .00000150  00000-0  37733-4 0  9992
2 28895  97.8849 158.9219 0015761 237.2888 122.6796 14.63492728649336
CUTE-1.7+APD II
1 32785U 08021C   17365.54754644  .00000263  00000-0  34226-4 0  9999
2 32785  97.5543  20.6765 0011958 230.1451 129.8715 14.88037941524241
DELFI C3
1 32789U 08021G   17365.19468058  .00001002  00000-0  73536-4 0  9994
2 32789  97.5354  59.0970 0013507 145.9260 214.2837 15.05635735526502
SEEDS
1 32791U 08021J   17364.63200061  .00000339  00000-0  40168-4 0  9990
2 32791  97.5477  24.7467 0012590 214.4634 145.5769 14.90432981524407
YUBELEINY
1 32953U 08025A   17365.39018005 -.00000006  00000-0 -11364-3 0  9991
2 32953  82.5037 117.0392 0019107 213.0123 146.9765 12.43080720435920
PRISM (HITOMI)
1 33493U 09002B   17365.49897181  .00000216  00000-0  24923-4 0  9995
2 33493  98.1449 256.0070 0015601 146.2641 213.9580 14.96016925485273
KKS-1 (KISEKI)
1 33499U 09002H   17365.52021260  .00000118  00000-0  25556-4 0  9996
2 33499  98.3452 176.9180 0010414 104.8377 255.3985 14.75279658480455
SWISSCUBE
1 35932U 09051B   17364.94687355 +.00000143 +00000-0 +43324-4 0  9993
2 35932 098.5207 147.3125 0007733 015.3459 344.7971 14.56105664438913
BEESAT
1 35933U 09051C   17365.05513426  .00000131  00000-0  40527-4 0  9993
2 35933  98.5247 148.8614 0006236  30.0790 330.0764 14.56215146439079
ITUPSAT 1
1 35935U 09051E   17365.15277885  .00000106  00000-0  35573-4 0  9999
2 35935  98.5358 149.2158 0008405  21.6395 338.5156 14.55399001438887
XIWANG-1 (HOPE-1)
1 36122U 09072B   17365.49744741 -.00000032  00000-0  27149-4 0  9997
2 36122 100.0860  22.9138 0007964 136.5228 223.6515 13.16342826386589
TISAT 1
1 36799U 10035E   17364.84074419  .00000537  00000-0  60848-4 0  9996
2 36799  98.0837 131.8736 0013183  46.1040 314.1263 14.90654749405076
JUGNU
1 37839U 11058B   17365.31277032  .00000306  00000-0  21172-4 0  9998
2 37839  19.9626 335.2000 0018951 195.6506 310.2593 14.12605450321607
SRMSAT
1 37841U 11058D   17364.45338133  .00000288  00000-0  13092-4 0  9996
2 37841  19.9733  26.1318 0012062  77.4452  61.5304 14.10595191321021
M-CUBED/EXP-1 PRIME
1 37855U 11061F   17364.85149580 +.00000940 +00000-0 +56554-4 0  9990
2 37855 101.7206 336.2704 0177882 220.1902 138.6043 15.03953380335879
HORYU 2
1 38340U 12025D   17365.10054834  .00000258  00000-0  45982-4 0  9992
2 38340  98.3751  15.9717 0012182  31.2248 328.9682 14.75476011302321
STRAND 1
1 39090U 13009E   17364.51325327 +.00000053 +00000-0 +33860-4 0  9995
2 39090 098.5344 207.9301 0010289 079.2539 280.9804 14.35004262253618
BEESAT 3
1 39134U 13015E   17365.24095156  .00001454  00000-0  78800-4 0  9995
2 39134  64.8644 309.9818 0029580 232.4838 127.3600 15.18678454259392
SOMP
1 39135U 13015F   17364.86057794 +.00001399 +00000-0 +81313-4 0  9990
2 39135 064.8697 322.4224 0030579 256.3603 103.4116 15.16282551258738
BEESAT 2
1 39136U 13015G   17364.90408530  .00001308  00000-0  77714-4 0  9994
2 39136  64.8705 324.6235 0032200 254.7969 104.9595 15.15770452259082
CUBEBUG 1
1 39153U 13018D   17365.20682211  .00000238  00000-0  38138-4 0  9998
2 39153  97.9830  96.4485 0018155 128.1450 232.1401 14.80316873252740
ZACUBE
1 39417U 13066B   17364.86716334  .00000266  00000-0  40156-4 0  9993
2 39417  97.6069  37.3228 0058799 347.8274  12.1515 14.80851391221887
TRITON 1
1 39427U 13066M   17364.96816600 +.00000253 +00000-0 +48081-4 0  9993
2 39427 097.6362 007.1173 0115582 078.5076 282.9083 14.67589554219710
GOMX 1
1 39430U 13066Q   17365.49028433  .00000219  00000-0  48353-4 0  9999
2 39430  97.6796 349.6370 0152557 139.5720 221.6937 14.58997708218705
HUMSAT D
1 39433U 13066T   17364.94909218 +.00000332 +00000-0 +38274-4 0  9997
2 39433 097.6287 062.0124 0029564 283.1255 076.6665 14.91704130222169
50 SAT
1 39436U 13066W   17364.92554966 +.00048815 +00000-0 +75451-3 0  9999
2 39436 097.7121 122.5842 0005582 088.2104 271.9788 15.53936643225850
CUBEBUG 2
1 39440U 13066AA  17365.51689468  .00000284  00000-0  46550-4 0  9993
2 39440  97.6120  25.6305 0081066  21.0108 339.4402 14.75589465221195
FUNCUBE 1
1 39444U 13066AE  17365.15301038  .00000327  00000-0  46957-4 0  9990
2 39444  97.6081  38.9034 0057812 342.8626  17.0634 14.81612727220776
UWE-3
1 39446U 13066AG  17364.94667472 +.00000280 +00000-0 +43992-4 0  9999
2 39446 097.6082 030.9017 0070366 005.5899 354.6082 14.78122202219670
SPROUT
1 39770U 14029E   17365.47108740  .00000976  00000-0  11614-3 0  9993
2 39770  97.8755 103.0041 0010191  46.2199 313.9860 14.86611959195444
UNISAT 6
1 40012U 14033C   17364.70189846 +.00000217 +00000-0 +39949-4 0  9990
2 40012 097.8307 241.9647 0059163 023.0658 337.3187 14.73743793189888
DUCHIFAT 1
1 40021U 14033M   17364.72657733  .00000519  00000-0  59460-4 0  9992
2 40021  97.9172 278.1432 0013571  19.4728 340.7005 14.90154591191862
QB50P1
1 40025U 14033R   17365.31005127  .00000348  00000-0  43366-4 0  9994
2 40025  97.9090 276.0198 0013109  23.1390 337.0414 14.88606959191810
CHUBUSAT 1
1 40300U 14070C   17365.11601519  .00000956  00000-0  45550-4 0  9998
2 40300  97.3810  81.2956 0021699 128.4887 319.1968 15.21321282174728
NUDT-PHONESAT
1 40900U 15049B   17365.21168442  .00002318  00000-0  10878-3 0  9993
2 40900  97.4420  10.4854 0012074 255.6057 104.3838 15.20602861126385
ZDPS 2A
1 40901U 15049C   17365.52776041  .00001061  00000-0  57371-4 0  9992
2 40901  97.4583   9.5397 0012209 259.5374 100.4483 15.16773591126244
ZDPS 2B
1 40902U 15049D   17365.21563976  .00000954  00000-0  52216-4 0  9993
2 40902  97.4469   7.5416 0012285 257.5595 102.4264 15.16584793126181
XW-2A
1 40903U 15049E   17365.48808010  .00002185  00000-0  57096-4 0  9993
2 40903  97.4036  33.5557 0012745 276.1576  83.8217 15.39838365127996
KAITUO 1A
1 40904U 15049F   17365.44852395  .00000480  00000-0  29324-4 0  9994
2 40904  97.4568   7.2180 0013187 259.7893 243.2717 15.14830747126105
OBJECT G
1 40905U 15049G   17365.52823870  .00000473  00000-0  29755-4 0  9990
2 40905  97.4547   5.6581 0014362 248.9530 111.0166 15.13816679126055
XW-2C
1 40906U 15049H   17365.49712069  .00000767  00000-0  44589-4 0  9992
2 40906  97.4573   7.1215 0013587 249.1456 110.8321 15.14954225126101
XW-2D
1 40907U 15049J   17365.53134219  .00000846  00000-0  48678-4 0  9994
2 40907  97.4545   6.8757 0012972 246.6689 113.3178 15.15087488126113
LILACSAT 2
1 40908U 15049K   17365.20928149  .00000440  00000-0  28265-4 0  9992
2 40908  97.4651   6.1274 0014578 248.2576 111.7104 15.13369449125967
XW-2F
1 40910U 15049M   17365.20932879  .00001217  00000-0  66419-4 0  9996
2 40910  97.4556   7.5740 0013739 244.3790 115.6024 15.16163616125998
XW-2B
1 40911U 15049N   17365.21278106  .00000802  00000-0  46355-4 0  9990
2 40911  97.4584   7.0332 0012853 248.4856 111.5007 15.15037410125960
